Regional Weather Roundup
Issued by NWS

Home | Current Version | Previous Version | Text Only | Print | Product List | Glossary Off
Versions: 1 2 3 4 5 6 7 8 9 10 11 12 13 14 15 16 17 18 19 20 21 22 23 24 25 26 27

000
ASUS45 KCYS 241710
RWRWY

WYOMING REGIONAL WEATHER ROUNDUP
NATIONAL WEATHER SERVICE CHEYENNE WY
1100 AM MDT THU APR 24 2014

NOTE:  "FAIR" INDICATES FEW OR NO CLOUDS BELOW 12,000 FEET
WITH NO SIGNIFICANT WEATHER AND/OR OBSTRUCTIONS TO VISIBILITY.

WYZ001-241800-
YELLOWSTONE NATIONAL PARK

CITY           SKY/WX    TMP DP  RH WIND       PRES   REMARKS
LK YELLOWSTONE   N/A     34  23  64 VRB5      29.97F WCI  30
W YELLOWSTONE  NOT AVBL

$$
WYZ002>013-054>058-071-098>099-241800-
NORTHERN WYOMING

CITY           SKY/WX    TMP DP  RH WIND       PRES   REMARKS
JACKSON        NOT AVBL
CODY           MOSUNNY   52  21  30 SW15G22   29.85F
GREYBULL       MOSUNNY   54  17  23 SE12      29.87F
WORLAND        PTSUNNY   54  17  23 S5        29.88F
SHERIDAN         N/A     39  16  38 SW22        N/A  WCI  29
BUFFALO        SUNNY     50  19  29 VRB3      29.87F
GILLETTE       SUNNY     51  24  34 VRB3      29.87F
HULETT         FAIR      48  27  43 W7        29.89
NEWCASTLE      FAIR      50  21  32 W3        29.89

$$
WYZ014>020-022>026-101>103-241800-
CENTRAL WYOMING

CITY           SKY/WX    TMP DP  RH WIND       PRES   REMARKS
BIG PINEY      MOSUNNY   44  18  35 SW10G20   30.04F
PINEDALE       PTSUNNY   37  21  52 SE5       30.05F WCI  34
DUBOIS         CLOUDY    39  19  45 NW18G28   29.94S WCI  30
LANDER         PTSUNNY   47  19  33 VRB3      29.93F
RIVERTON       MOSUNNY   45  13  27 SE6       29.94F
CASPER         SUNNY     51  15  23 SW22G30   29.94F
DOUGLAS        SUNNY     55  15  20 W21G30    29.93F

$$
WYZ021-027>030-104>119-241800-
SOUTHERN WYOMING

CITY           SKY/WX    TMP DP  RH WIND       PRES   REMARKS
EVANSTON       CLOUDY    43  18  36 SW12      30.07S
KEMMERER       MOSUNNY   45  18  33 W14G21    30.06F
FORT BRIDGER   FAIR      46  20  35 W10       30.10S
ROCK SPRINGS   NOT AVBL
DIXON          FAIR      43  17  35 SW13G22   30.13S
RAWLINS        PTSUNNY   45  16  31 W22G37    30.04F
SARATOGA       FAIR      43  18  36 W20G28    30.08S
LARAMIE        SUNNY     44  11  26 W22       30.00F
CHEYENNE       SUNNY     49  15  25 W21G29    29.99F
TORRINGTON     SUNNY     56  18  22 W17G26    29.93S
PINE BLUFFS    FAIR      52  12  20 W18G29    29.98S

$$



USA.gov is the U.S. government's official web portal to all federal, state and local government web resources and services.